Cut Bank, MT

3:37 PM MST on February 24, 2017 (GMT -0700)
Cut Bank Municipal

Weather History for KCTB - December, 2011

Change the Weather History Date:

Friday, December 16, 2011

  Actual Average Record
Temperature  
Mean Temperature 33 °F 22 °F  
Max Temperature 40 °F 32 °F 62 °F (1980)
Min Temperature 26 °F 12 °F -38 °F (1979)
Degree Days  
Heating Degree Days 32 43  
Month to date heating degree days 685 672  
Since 1 July heating degree days 2658 2935  
Cooling Degree Days 0 0  
Month to date cooling degree days 0 0  
Year to date cooling degree days 151 162  
Moisture  
Dew Point 24 °F    
Average Humidity 65    
Maximum Humidity 70    
Minimum Humidity 59    
Precipitation  
Precipitation 0.00 in 0.01 in 0.35 in (1929)
Month to date precipitation 0.01 0.11  
Year to date precipitation 5.95 10.79  
Snow  
Snow 0.00 in - - ()
Snow Depth 2.00 in    
Sea Level Pressure  
Sea Level Pressure 30.21 in    
Wind  
Wind Speed 22 mph (WSW)    
Max Wind Speed 30 mph    
Max Gust Speed 37 mph    
Visibility 10 miles    
Events      
T = Trace of Precipitation, MM = Missing Value Source: NWS Daily Summary

Daily Weather History Graph

Daily Weather History Graph

Search for Another Location

Airport or City:

Trip Planner

Search our weather history database for the weather conditions in past years. The results will help you decide how hot, cold, wet, or windy it might be!

Date:

Astronomy

Dec. 16, 2011 Rise Set
Actual Time 8:15 AM MST 4:34 PM MST
Civil Twilight 7:38 AM MST 5:11 PM MST
Nautical Twilight 6:58 AM MST 5:51 PM MST
Astronomical Twilight 6:20 AM MST 6:29 PM MST
Moon 11:41 PM MST (12/16) 11:36 AM MST (12/16)
Length of Visible Light 9h 32m
Length of Day
8h 18m
Waning Gibbous, 64% of the Moon is Illuminated
Dec 16
Waning Gibbous
Dec 17
Last Quarter
Dec 24
New
Dec 31
First Quarter
Jan 9
Full

Hourly Weather History & Observations

Time (MST) Temp. Windchill Dew Point Humidity Pressure Visibility Wind Dir Wind Speed Gust Speed Precip Events Conditions
12:56 AM 28.0 °F 16.1 °F 18.0 °F 66% 30.25 in 10.0 mi WSW 16.1 mph - N/A   Clear
1:56 AM 28.0 °F 15.7 °F 18.0 °F 66% 30.25 in 10.0 mi WSW 17.3 mph 26.5 mph N/A   Clear
2:56 AM 28.9 °F 15.1 °F 19.0 °F 67% 30.22 in 10.0 mi West 23.0 mph - N/A   Clear
3:56 AM 30.9 °F 18.1 °F 19.0 °F 61% 30.20 in 10.0 mi WSW 21.9 mph 31.1 mph N/A   Clear
4:56 AM 32.0 °F 18.4 °F 19.4 °F 60% 30.10 in 10.0 mi WSW 26.5 mph 33.4 mph N/A   Clear
5:56 AM 32.0 °F 18.6 °F 21.0 °F 64% 30.19 in 10.0 mi West 25.3 mph 33.4 mph N/A   Clear
6:56 AM 32.0 °F 20.5 °F 21.0 °F 64% 30.20 in 10.0 mi West 18.4 mph 28.8 mph N/A   Clear
7:56 AM 30.9 °F 18.4 °F 21.9 °F 69% 30.21 in 10.0 mi West 20.7 mph 28.8 mph N/A   Clear
8:56 AM 33.1 °F 20.3 °F 21.9 °F 64% 30.23 in 10.0 mi West 24.2 mph 33.4 mph N/A   Clear
9:56 AM 34.0 °F 21.5 °F 23.0 °F 64% 30.25 in 10.0 mi West 24.2 mph 31.1 mph N/A   Clear
10:56 AM 37.0 °F 25.9 °F 25.0 °F 62% 30.29 in 10.0 mi West 23.0 mph 29.9 mph N/A   Clear
11:56 AM 37.0 °F 27.0 °F 25.0 °F 62% 30.26 in 10.0 mi WSW 18.4 mph 29.9 mph N/A   Clear
12:56 PM 37.4 °F 26.4 °F 26.6 °F 65% 30.15 in 10.0 mi WSW 23.0 mph 31.1 mph N/A   Clear
1:56 PM 37.9 °F 26.8 °F 26.1 °F 62% 30.22 in 10.0 mi West 24.2 mph 32.2 mph N/A   Clear
2:56 PM 39.0 °F 29.0 °F 26.1 °F 60% 30.22 in 10.0 mi WSW 20.7 mph - N/A   Clear
3:56 PM 37.0 °F 26.7 °F 26.1 °F 65% 30.22 in 10.0 mi WSW 19.6 mph - N/A   Clear
4:56 PM 36.0 °F 24.4 °F 26.1 °F 67% 30.22 in 10.0 mi West 23.0 mph 29.9 mph N/A   Partly Cloudy
5:56 PM 37.4 °F 26.9 °F 26.6 °F 65% 30.12 in 10.0 mi West 20.7 mph 31.1 mph N/A   Clear
6:56 PM 37.0 °F 25.1 °F 26.1 °F 65% 30.19 in 10.0 mi West 26.5 mph 35.7 mph N/A   Clear
7:56 PM 37.9 °F 26.6 °F 27.0 °F 65% 30.20 in 10.0 mi West 25.3 mph 35.7 mph N/A   Clear
8:56 PM 37.0 °F 26.7 °F 27.0 °F 67% 30.21 in 10.0 mi West 19.6 mph - N/A   Clear
9:56 PM 39.0 °F 29.3 °F 28.0 °F 65% 30.20 in 10.0 mi West 19.6 mph 25.3 mph N/A   Clear
10:56 PM 37.9 °F 27.9 °F 28.0 °F 68% 30.20 in 10.0 mi WSW 19.6 mph - N/A   Overcast
11:56 PM 39.0 °F 29.0 °F 28.0 °F 65% 30.19 in 10.0 mi WSW 20.7 mph 28.8 mph N/A   Partly Cloudy